Showing default

COSMOS 1803, 17177

Orbit data source: Space-Track

COSMOS 1803, 17177 is a payload satellite owned by VTS SA (CIS) in LEO that was launched on Tue, 02 Dec 1986 UTC via a TSIKLON-3 launch vehicle from the Plesetsk Missile And Space Complex (PKMTR). Payload-class satellites include a variety of spacecraft equipped with specific instruments for various scientific and technological missions. These include communications satellites like Starlink; space stations such as the ISS; scientific satellites like the Hubble; Earth observation satellites from companies like Planet Labs, Umbra, and HawkEye 360; GPS; miniature CubeSats for education and research; and military/defense satellites.

Loading next visibility...
Identifier
17177, 1986-094A
Orbit
LEO
Country
Flag of CISCIS
Related business
Manufacturer
NPO PM
Mission
Defense Geodetic
Bus & Motor
KAUR-1 11F666, Unknown motor
Mass
1,552 kg wet, 1,552 kg dry
Launch date (UTC)
1986-12-02 (39 years ago)
Launch vehicle
TSIKLON-3
Launch site
Plesetsk Missile And Space Complex (PKMTR)
Object type
Payload
Rocket body
Debris
Shape & HBR
Cyl, 2.9 m
Radar Cross Section
13.195 m², Large (>1 m²)

Expand to show TLE details & history
Last TLE update: 16 hours ago

TLE from 16 hours ago
0 COSMOS 1803
1 17177U 86094A   26150.60481902  .00000035  00000-0  18471-3 0  9996
2 17177  82.6083  21.3905 0004146 112.3648 275.0721 12.41549410789775
Epoch: 2026-05-30T14:30Z
TLE epoch observation values (Epoch: 2026-05-30T14:30:56.363Z)
Latitude
27.17834°
Longitude
-80.66219°
Altitude
1,502.912 km
Speed
7.115 km/s
True Right ascension
01h 40m 45s
True Declination
27° 03' 07"
Sunlit
Object was in daylight at epoch
Visualization orbit readout
Latitude
Unknown
Longitude
Unknown
Altitude
Unknown
Speed
Unknown
Apparent Right ascension
Unknown
Apparent Declination
Unknown
Sunlit
N/A
Visualization observer readout
Local Sidereal Time
16:15:46
Azimuth
Unknown
Elevation
Unknown
Doppler factor
Unknown
Orbital elements
Apogee altitude
1,500.656 km
Perigee altitude
1,494.126 km
Semi-major axis
7,875.528 km
Eccentricity
0.00041
Inclination
82.6083°
RAAN
21.3905°
Arg. of periapsis
112.3648°
True anomaly
275.02477°
Mean anomaly
275.0721°
Eccentric anomaly
275.04844°
Mean motion
3.10544 °/min
Orbital period
115.93 mins
BSTAR
0.00018471
Loading maneuver chart data...
Computing Atmospheric mass density...
Loading historical data...
Loading historical data...
Loading historical data...
Loading historical data...
Loading historical data...
Loading historical data...
Loading historical data...
Other satellites on launch #94 in the year 1986 (1986-12-02 UTC)

Documentation

Showing up to 5 results
|